Total_Precipitation_Accumulation
0.00 0.00 0.00 0.00 0.00 0.00 0.00 0.00 0.00 0.00 0.00 0.00 0.00 0.00 0.00 0.00 0.00 0.00 0.00 0.00 0.00 0.00 0.00 0.00 0.00 0.00 0.00 0.00 0.00 0.00 0.00 0.00 0.00 0.00 0.00 0.00 0.00 0.00 0.00 0.00 0.00 0.00 0.00
0.00 0.00 0.00 0.00 0.00 0.00 0.00 0.00 0.00 0.00 0.00 0.00 0.00 0.00 0.00 0.00 0.00 0.00 0.00 0.00 0.00 0.00 0.00 0.00 0.00 0.00 0.00 0.00 0.00 0.00 0.00 0.00 0.00 0.00 0.00 0.00 0.00 0.00 0.00 0.00 0.00 0.00 0.00
0.00 0.00 0.00 0.00 0.00 0.00 0.00 0.00 0.00 0.00 0.00 0.00 0.00 0.00 0.00 0.00 0.00 0.00 0.00 0.00 0.00 0.00 0.00 0.00 0.00 0.00 0.00 0.00 0.00 0.00 0.00 0.00 0.00 0.00 0.00 0.00 0.00 0.00 0.00 0.00 0.00 0.00 0.00
0.00 0.00 0.00 0.00 0.00 0.00 0.00 0.00 0.00 0.00 0.00 0.00 0.00 0.00 0.00 0.00 0.00 0.00 0.00 0.00 0.00 0.00 0.00 0.00 0.00 0.00 0.00 0.00 0.00 0.00 0.00 0.00 0.00 0.00 0.00 0.00 0.00 0.00 0.00 0.00 0.00 0.00 0.00
0.00 0.00 0.00 0.00 0.00 0.00 0.00 0.00 0.00 0.00 0.00 0.00 0.00 0.00 0.00 0.00 0.00 0.00 0.00 0.00 0.00 0.00 0.00 0.00 0.00 0.00 0.00 0.00 0.00 0.00 0.00 0.00 0.00 0.00 0.00 0.00 0.00 0.00 0.00 0.00 0.00 0.00 0.00
0.03 0.00 0.00 0.00 0.00 0.00 0.00 0.00 0.00 0.00 0.00 0.00 0.00 0.00 0.00 0.00 0.00 0.00 0.00 0.00 0.00 0.00 0.00 0.00 0.00 0.00 0.00 0.00 0.00 0.00 0.00 0.00 0.00 0.00 0.00 0.00 0.00 0.00 0.00 0.00 0.00 0.00 0.00
0.06 0.03 0.00 0.00 0.00 0.00 0.00 0.00 0.00 0.00 0.00 0.00 0.00 0.00 0.00 0.00 0.00 0.00 0.00 0.00 0.00 0.00 0.00 0.00 0.00 0.00 0.00 0.00 0.00 0.00 0.00 0.01 0.00 0.00 0.00 0.00 0.00 0.00 0.00 0.00 0.00 0.00 0.00
0.20 0.08 0.02 0.03 0.03 0.01 0.01 0.00 0.01 0.01 0.01 0.01 0.01 0.00 0.00 0.00 0.00 0.00 0.00 0.00 0.00 0.00 0.00 0.00 0.00 0.00 0.00 0.00 0.00 0.01 0.02 0.04 0.11 0.07 0.03 0.03 0.03 0.01 0.00 0.00 0.00 0.00 0.00
0.19 0.16 0.14 0.14 0.14 0.06 0.08 0.04 0.15 0.16 0.10 0.11 0.08 0.09 0.02 0.00 0.00 0.00 0.00 0.00 0.00 0.00 0.00 0.00 0.00 0.00 0.00 0.02 0.06 0.10 0.11 0.14 0.20 0.21 0.14 0.12 0.13 0.10 0.09 0.08 0.06 0.05 0.04
0.17 0.32 0.28 0.25 0.22 0.16 0.12 0.29 0.25 0.28 0.29 0.18 0.18 0.09 0.07 0.03 0.02 0.01 0.02 0.04 0.02 0.01 0.00 0.00 0.00 0.02 0.07 0.13 0.21 0.27 0.27 0.27 0.31 0.34 0.31 0.33 0.33 0.29 0.25 0.23 0.21 0.20 0.19
0.04 0.15 0.29 0.28 0.20 0.16 0.18 0.23 0.29 0.23 0.29 0.26 0.24 0.29 0.21 0.12 0.06 0.05 0.06 0.06 0.05 0.03 0.02 0.03 0.05 0.08 0.13 0.21 0.30 0.35 0.36 0.38 0.41 0.44 0.50 0.48 0.38 0.31 0.32 0.34 0.32 0.29 0.27
0.02 0.06 0.11 0.15 0.25 0.14 0.18 0.24 0.36 0.35 0.27 0.25 0.22 0.25 0.36 0.33 0.23 0.17 0.14 0.08 0.08 0.05 0.04 0.04 0.06 0.07 0.09 0.15 0.23 0.31 0.37 0.43 0.56 0.62 0.60 0.52 0.44 0.43 0.43 0.42 0.39 0.40 0.36
0.02 0.06 0.10 0.11 0.15 0.19 0.21 0.20 0.22 0.22 0.23 0.26 0.28 0.25 0.25 0.25 0.23 0.24 0.24 0.20 0.15 0.13 0.14 0.14 0.15 0.16 0.16 0.20 0.32 0.51 0.58 0.62 0.65 0.67 0.68 0.71 0.64 0.54 0.47 0.38 0.31 0.23 0.17
0.01 0.02 0.04 0.08 0.13 0.16 0.19 0.19 0.19 0.20 0.21 0.26 0.29 0.27 0.23 0.20 0.21 0.22 0.22 0.21 0.24 0.22 0.20 0.20 0.21 0.30 0.42 0.58 0.72 0.76 0.66 0.68 0.67 0.67 0.62 0.53 0.42 0.31 0.18 0.13 0.12 0.09 0.05
0.00 0.00 0.01 0.02 0.08 0.12 0.16 0.20 0.23 0.23 0.24 0.26 0.27 0.29 0.27 0.27 0.29 0.30 0.31 0.37 0.51 0.59 0.52 0.51 0.58 0.63 0.66 0.64 0.62 0.56 0.51 0.54 0.40 0.25 0.17 0.12 0.10 0.08 0.08 0.05 0.03 0.02 0.02
0.00 0.00 0.01 0.01 0.03 0.05 0.07 0.09 0.11 0.12 0.19 0.21 0.23 0.28 0.28 0.27 0.29 0.29 0.32 0.38 0.47 0.62 0.68 0.56 0.57 0.62 0.67 0.65 0.59 0.38 0.24 0.18 0.11 0.08 0.07 0.05 0.03 0.02 0.01 0.00 0.00 0.00 0.00
0.00 0.00 0.00 0.00 0.00 0.01 0.01 0.02 0.03 0.03 0.06 0.10 0.13 0.16 0.15 0.12 0.17 0.24 0.31 0.37 0.44 0.51 0.57 0.52 0.44 0.35 0.25 0.14 0.08 0.07 0.07 0.05 0.04 0.03 0.01 0.01 0.00 0.00 0.00 0.00 0.00 0.00 0.00
0.00 0.00 0.00 0.00 0.00 0.00 0.00 0.00 0.01 0.01 0.01 0.02 0.03 0.04 0.06 0.07 0.10 0.16 0.20 0.25 0.28 0.28 0.25 0.19 0.13 0.10 0.08 0.06 0.03 0.02 0.01 0.00 0.00 0.00 0.00 0.00 0.00 0.00 0.00 0.00 0.00 0.00 0.01
0.00 0.00 0.00 0.00 0.00 0.00 0.00 0.00 0.00 0.01 0.02 0.03 0.04 0.06 0.11 0.18 0.24 0.29 0.32 0.31 0.27 0.20 0.14 0.10 0.06 0.03 0.01 0.00 0.00 0.00 0.00 0.00 0.00 0.00 0.00 0.00 0.00 0.00 0.00 0.00 0.00 0.00 0.00
0.00 0.00 0.00 0.00 0.00 0.00 0.00 0.01 0.01 0.03 0.04 0.05 0.09 0.14 0.18 0.22 0.23 0.22 0.19 0.14 0.10 0.07 0.06 0.06 0.06 0.03 0.01 0.00 0.00 0.00 0.00 0.00 0.00 0.00 0.00 0.00 0.00 0.00 0.00 0.00 0.00 0.00 0.00
0.01 0.01 0.01 0.01 0.01 0.01 0.02 0.03 0.04 0.10 0.16 0.22 0.26 0.26 0.24 0.24 0.19 0.12 0.09 0.09 0.07 0.04 0.02 0.01 0.00 0.00 0.00 0.00 0.00 0.00 0.00 0.00 0.00 0.00 0.00 0.00 0.00 0.00 0.00 0.00 0.00 0.00 0.00
0.07 0.05 0.04 0.03 0.03 0.04 0.12 0.09 0.07 0.09 0.13 0.15 0.16 0.17 0.20 0.23 0.18 0.13 0.11 0.08 0.05 0.03 0.02 0.01 0.00 0.00 0.00 0.00 0.00 0.00 0.00 0.00 0.00 0.00 0.00 0.00 0.00 0.00 0.00 0.00 0.00 0.00 0.00
0.47 0.40 0.37 0.23 0.26 0.31 0.31 0.24 0.28 0.32 0.33 0.31 0.29 0.27 0.19 0.13 0.10 0.07 0.04 0.01 0.01 0.00 0.00 0.00 0.00 0.00 0.00 0.00 0.00 0.00 0.00 0.01 0.00 0.00 0.00 0.00 0.00 0.00 0.00 0.00 0.00 0.00 0.00
0.29 0.35 0.65 0.67 0.64 0.63 0.59 0.48 0.34 0.24 0.17 0.14 0.11 0.08 0.04 0.02 0.00 0.00 0.00 0.00 0.00 0.00 0.00 0.00 0.00 0.00 0.00 0.00 0.00 0.01 0.00 0.00 0.00 0.00 0.00 0.00 0.00 0.00 0.00 0.00 0.00 0.00 0.00
0.22 0.19 0.19 0.23 0.26 0.23 0.16 0.10 0.08 0.09 0.08 0.06 0.02 0.00 0.00 0.00 0.00 0.00 0.00 0.00 0.00 0.00 0.00 0.00 0.00 0.00 0.00 0.00 0.00 0.00 0.00 0.00 0.00 0.00 0.00 0.00 0.00 0.00 0.00 0.00 0.00 0.00 0.00
0.10 0.21 0.21 0.14 0.09 0.06 0.04 0.02 0.01 0.01 0.00 0.00 0.00 0.00 0.00 0.00 0.00 0.00 0.00 0.00 0.00 0.00 0.00 0.00 0.00 0.00 0.00 0.00 0.00 0.00 0.00 0.00 0.01 0.02 0.00 0.02 0.00 0.01 0.03 0.00 0.00 0.00 0.00